[[{"header":{"parameterUnit":"m.s-1","parameterCategory":1,"la1":30.2991,"la2":30.254,"lo1":-89.0895,"lo2":-89.0444,"dy":0.0017,"dx":0.0017,"nx":28,"ny":28,"refTime":"2024-03-18T21:00:00:Z","depth":0,"parameterNumber":2,"parameterNumberName":"U-component_of_WINDS"},"data":[0,0,0,0,0,0,0,0,0,0,0,0,0,0,0,0,0,0,0,0,0,0,0,0,0,0,0,0,0,0,0,0,0,0,0,0,0,0,0,0,0,0,0,0,0,0,0,0,0,0,0,0,0,0,0,0,0,0,3.2327,3.2327,0,3.2385,3.2385,3.2386,3.239,3.2389,3.2389,3.2388,3.2447,3.2449,3.2451,0,0,0,0,0,0,0,0,0,0,0,0,0,3.222,3.2222,3.2327,3.2327,3.2328,3.2385,3.2385,3.2386,3.239,3.2389,3.2389,3.2388,3.2446,3.2449,3.2451,0,0,0,0,0,0,0,0,0,0,0,0,0,3.2271,3.2223,3.2327,3.2337,3.2338,3.2384,3.2385,3.2386,3.239,3.2389,3.2388,3.2388,3.2445,3.2449,3.2452,3.2491,0,0,3.2462,3.2463,0,0,0,0,0,0,0,0,3.2268,3.2275,3.2335,3.2336,3.2338,3.2379,3.2369,3.2422,3.2391,3.2371,3.2388,3.2387,3.2425,3.243,3.2443,3.2494,3.2496,3.2462,3.2464,3.2465,3.2466,0,0,0,0,0,0,0,3.2265,3.2273,3.235,3.2336,3.2338,3.2339,3.2345,3.2379,3.2403,3.2372,3.2373,3.238,3.2426,3.244,3.2444,3.2497,3.2462,3.2465,3.2467,3.2468,3.2586,3.2587,0,0,0,0,0,0,3.2259,3.227,3.2348,3.2351,3.23,3.2342,3.2349,3.2367,3.2402,3.2407,3.238,3.238,3.2435,3.2441,3.2446,3.2496,3.2465,3.2468,3.247,3.2585,3.2586,3.2587,0,0,0,0,0,0,3.2257,3.2266,3.2345,3.2311,3.2321,3.2345,3.2365,3.2369,3.2383,3.2408,3.2412,3.239,3.2434,3.2442,3.2481,3.2498,3.247,3.2473,3.2583,3.2585,3.2587,3.2595,0,0,0,0,0,0,3.2254,3.2265,3.228,3.2311,3.2323,3.2378,3.2366,3.237,3.2388,3.2388,3.2419,3.2423,3.2434,3.2476,3.2484,3.2502,3.2475,3.2582,3.2584,3.2586,3.2593,3.2597,3.26,0,0,0,0,0,3.225,3.2279,3.2281,3.229,3.2342,3.2379,3.2386,3.2398,3.239,3.2405,3.2422,3.2422,3.2495,3.248,3.2489,3.2508,3.2581,3.2584,3.2586,3.2592,3.2596,3.26,0,0,0,0,0,0,3.2249,3.2283,3.2285,3.2326,3.235,3.238,3.2399,3.2402,3.2429,3.2427,3.2441,3.2448,3.2487,3.2502,3.2484,3.255,3.2537,3.2542,3.2538,3.2543,3.2546,3.2541,3.2478,0,0,0,0,0,3.2254,3.2281,3.231,3.2343,3.2355,3.2375,3.2392,3.24,3.2425,3.2435,3.2454,3.2479,3.2508,3.2526,3.2554,3.2596,3.2603,3.2614,3.2617,3.262,3.2624,3.2649,3.2654,3.2596,3.2596,3.2596,0,0,3.2263,3.2285,3.2302,3.2343,3.2362,3.2391,3.2383,3.2413,3.2435,3.2439,3.2477,3.2493,3.2521,3.2562,3.2581,3.2576,3.2642,3.2623,3.2625,3.2628,3.2652,3.2657,3.2662,3.2598,3.2598,3.2597,0,0,3.2295,3.2314,3.2345,3.2365,3.2395,3.2408,3.2416,3.2446,3.2457,3.2496,3.25,3.2526,3.2575,3.2595,3.2612,3.2655,3.2656,3.2664,3.2681,3.2705,3.271,3.2714,3.273,3.2735,3.2667,3.2667,3.2667,0,3.2303,3.2346,3.236,3.239,3.2409,3.2415,3.2447,3.2465,3.2503,3.2516,3.2509,3.2572,3.2591,3.2638,3.2649,3.2662,3.2672,3.266,3.2708,3.2712,3.2716,3.2732,3.2737,3.2668,3.2668,3.2668,3.2668,0,3.2355,3.2385,3.2405,3.2442,3.2464,3.2494,3.2513,3.2533,3.254,3.2555,3.2595,3.2619,3.2653,3.2664,3.2671,3.2713,3.2708,3.2705,3.2692,3.2722,3.2737,3.2743,3.2669,3.2669,3.2669,3.2669,0,0,3.2385,3.2431,3.2439,3.2456,3.2491,3.2515,3.2547,3.258,3.2597,3.2624,3.2651,3.2694,3.2691,3.271,3.2719,3.2741,3.2775,3.2735,3.2736,3.2742,3.2824,3.2826,3.2832,3.2776,3.2777,3.2778,3.2821,0,3.2421,3.2478,3.2493,3.2541,3.257,3.2578,3.2606,3.263,3.2646,3.2673,3.269,3.272,3.2714,3.2726,3.2747,3.2766,3.2791,3.2763,3.2802,3.2803,3.2794,3.284,3.2842,3.2882,3.2827,3.2828,3.2829,0,3.247,3.2499,3.255,3.2583,3.2596,3.2621,3.2654,3.2679,3.2708,3.2718,3.2741,3.2748,3.2783,3.277,3.2818,3.2798,3.2816,3.2828,3.2829,3.2833,3.2817,3.2845,3.2894,3.29,3.2838,3.2837,3.2837,0,3.2489,3.254,3.2578,3.2592,3.2631,3.2649,3.2666,3.2694,3.2714,3.2743,3.2756,3.2789,3.2807,3.2832,3.2849,3.2837,3.2896,3.2884,3.2906,3.2905,3.2917,3.2916,3.2969,3.2928,3.2928,3.2928,3.2928,0,3.2527,3.2558,3.2587,3.261,3.2646,3.2663,3.2698,3.2715,3.2741,3.2768,3.2777,3.2803,3.2823,3.2852,3.2865,3.2904,3.2912,3.2921,3.2924,3.292,3.2919,3.2931,3.2929,3.293,3.2929,3.2929,3.2929,0,3.2553,3.2573,3.2615,3.2649,3.2659,3.2684,3.2713,3.2737,3.2753,3.2788,3.2797,3.2823,3.2857,3.2877,3.292,3.2929,3.2972,3.2974,3.2963,3.2964,3.2985,3.2982,3.3048,3.3058,3.301,3.301,3.3011,0,3.2576,3.26,3.2638,3.2657,3.2675,3.2705,3.2726,3.2745,3.2766,3.2802,3.2822,3.2857,3.2886,3.2941,3.2964,3.2997,3.3,3.3021,3.3005,3.3001,3.3001,3.2999,3.3002,3.3023,3.3024,3.3024,3.3024,0,3.2615,3.2624,3.2654,3.2688,3.2712,3.274,3.2767,3.2782,3.2806,3.2829,3.2865,3.2888,3.2933,3.2968,3.3004,3.3022,3.3028,3.3029,3.3036,3.3032,3.3024,3.3029,3.297,3.3027,3.3027,3.3027,3.3027,3.3027,3.264,3.2663,3.2693,3.2727,3.275,3.2775,3.2799,3.282,3.285,3.2888,3.2898,3.2935,3.2966,3.3015,3.3034,3.3065,3.3061,3.3071,3.3073,3.3075,3.3076,3.302,3.3071,3.3071,3.3071,3.3071,3.3071,0,3.268,3.2701,3.2731,3.2769,3.2796,3.28,3.2831,3.2853,3.2886,3.2914,3.2943,3.2985,3.302,3.3046,3.3082,3.3102,3.3105,3.311,3.3109,3.3113,3.3077,3.3068,3.3107,3.3107,3.3107,3.3107,3.3107,3.3107,3.2704,3.2743,3.2756,3.2807,3.2828,3.2865,3.2883,3.2907,3.293,3.2976,3.3006,3.3023,3.3051,3.3089,3.3122,3.3129,3.3142,3.3147,3.3154,3.312,3.3116,3.3112,3.3103,3.3149,3.315,3.3188,3.3188,3.3189]},{"header":{"parameterUnit":"m.s-1","parameterCategory":1,"la1":30.2991,"la2":30.254,"lo1":-89.0895,"lo2":-89.0444,"dy":0.0017,"dx":0.0017,"nx":28,"ny":28,"refTime":"2024-03-18T21:00:00:Z","depth":0,"parameterNumber":3,"parameterNumberName":"V-component_of_WINDS"},"data":[0,0,0,0,0,0,0,0,0,0,0,0,0,0,0,0,0,0,0,0,0,0,0,0,0,0,0,0,0,0,0,0,0,0,0,0,0,0,0,0,0,0,0,0,0,0,0,0,0,0,0,0,0,0,0,0,0,0,-7.2413,-7.2414,0,-7.2489,-7.249,-7.2491,-7.2462,-7.246,-7.2459,-7.2457,-7.253,-7.2533,-7.2537,0,0,0,0,0,0,0,0,0,0,0,0,0,-7.2242,-7.2245,-7.2413,-7.2414,-7.2415,-7.2489,-7.249,-7.2491,-7.2462,-7.246,-7.2458,-7.2456,-7.2529,-7.2533,-7.2537,0,0,0,0,0,0,0,0,0,0,0,0,0,-7.2316,-7.2246,-7.2413,-7.241,-7.2411,-7.2489,-7.249,-7.2491,-7.2463,-7.246,-7.2458,-7.2455,-7.2527,-7.2532,-7.2538,-7.2622,0,0,-7.2554,-7.2556,0,0,0,0,0,0,0,0,-7.2312,-7.2323,-7.241,-7.241,-7.2411,-7.2464,-7.2456,-7.2535,-7.2464,-7.2443,-7.2457,-7.2454,-7.2509,-7.2516,-7.2536,-7.2625,-7.2628,-7.2554,-7.2557,-7.256,-7.2561,0,0,0,0,0,0,0,-7.2307,-7.2319,-7.2443,-7.2411,-7.2412,-7.2404,-7.2412,-7.2471,-7.2489,-7.2444,-7.2443,-7.2452,-7.2509,-7.2531,-7.2537,-7.2629,-7.2554,-7.2559,-7.2562,-7.2564,-7.2793,-7.2796,0,0,0,0,0,0,-7.2302,-7.2315,-7.2441,-7.2445,-7.2355,-7.2409,-7.2418,-7.2449,-7.2489,-7.2492,-7.2454,-7.2451,-7.2523,-7.2531,-7.254,-7.2642,-7.256,-7.2565,-7.2568,-7.279,-7.2794,-7.2797,0,0,0,0,0,0,-7.2299,-7.2314,-7.2438,-7.238,-7.2395,-7.2415,-7.245,-7.2452,-7.2473,-7.2496,-7.2499,-7.2473,-7.2521,-7.2532,-7.2602,-7.2644,-7.2567,-7.2572,-7.2787,-7.2792,-7.2796,-7.2847,0,0,0,0,0,0,-7.2294,-7.2313,-7.2345,-7.2381,-7.2398,-7.25,-7.2453,-7.2455,-7.2483,-7.2479,-7.2514,-7.2518,-7.252,-7.2595,-7.2608,-7.265,-7.2576,-7.2783,-7.2789,-7.2794,-7.2841,-7.2852,-7.2862,0,0,0,0,0,-7.2288,-7.2355,-7.2347,-7.2362,-7.244,-7.2502,-7.2512,-7.2515,-7.2487,-7.2519,-7.2535,-7.2517,-7.2638,-7.2602,-7.2616,-7.2661,-7.2781,-7.2787,-7.2794,-7.2837,-7.285,-7.2861,0,0,0,0,0,0,-7.2321,-7.2359,-7.2351,-7.2432,-7.2465,-7.2497,-7.2539,-7.2528,-7.2568,-7.2562,-7.2562,-7.2571,-7.2643,-7.2659,-7.2619,-7.2746,-7.2705,-7.2715,-7.2733,-7.2746,-7.2755,-7.275,-7.258,0,0,0,0,0,-7.2338,-7.2387,-7.2417,-7.2486,-7.2503,-7.2518,-7.2546,-7.2545,-7.2578,-7.2591,-7.2611,-7.2643,-7.2688,-7.2717,-7.276,-7.2844,-7.2851,-7.2882,-7.2892,-7.29,-7.2908,-7.2955,-7.2969,-7.2819,-7.2819,-7.2819,0,0,-7.2373,-7.24,-7.2431,-7.2493,-7.2519,-7.2569,-7.253,-7.2584,-7.2621,-7.2599,-7.2667,-7.2683,-7.2718,-7.2796,-7.2831,-7.2811,-7.2952,-7.2909,-7.2915,-7.2919,-7.2964,-7.2978,-7.299,-7.2823,-7.2822,-7.2822,0,0,-7.2463,-7.2488,-7.2549,-7.2576,-7.2616,-7.2626,-7.2641,-7.2676,-7.2687,-7.2756,-7.2741,-7.2784,-7.2862,-7.2889,-7.2912,-7.3015,-7.3001,-7.3029,-7.3082,-7.3128,-7.314,-7.315,-7.3188,-7.3201,-7.3037,-7.3038,-7.3038,0,-7.2501,-7.2577,-7.2581,-7.2638,-7.2666,-7.2651,-7.2713,-7.2738,-7.2789,-7.2808,-7.2786,-7.2885,-7.2907,-7.2992,-7.3018,-7.3037,-7.3054,-7.3025,-7.3138,-7.3148,-7.3158,-7.3194,-7.3208,-7.3041,-7.304,-7.304,-7.304,0,-7.2623,-7.2676,-7.272,-7.2773,-7.2806,-7.2864,-7.2877,-7.291,-7.2908,-7.292,-7.2991,-7.3018,-7.3067,-7.3087,-7.3084,-7.3172,-7.3159,-7.3137,-7.3096,-7.3176,-7.321,-7.3223,-7.3045,-7.3044,-7.3043,-7.3043,0,0,-7.2733,-7.279,-7.2806,-7.2831,-7.2875,-7.2915,-7.2974,-7.3024,-7.3053,-7.3089,-7.3138,-7.3205,-7.3187,-7.3213,-7.3213,-7.3254,-7.3335,-7.3227,-7.3228,-7.3247,-7.3435,-7.3451,-7.3467,-7.3326,-7.3329,-7.3331,-7.3432,0,-7.2827,-7.2932,-7.2938,-7.3033,-7.3082,-7.307,-7.3121,-7.3153,-7.3167,-7.3211,-7.3225,-7.3274,-7.3245,-7.3261,-7.3301,-7.3317,-7.3373,-7.331,-7.3371,-7.3373,-7.3363,-7.3485,-7.3501,-7.3596,-7.3446,-7.3448,-7.3449,0,-7.295,-7.2993,-7.3093,-7.3133,-7.3154,-7.32,-7.3247,-7.3289,-7.3326,-7.3333,-7.3365,-7.336,-7.342,-7.3378,-7.346,-7.3417,-7.3442,-7.3454,-7.3458,-7.3464,-7.3416,-7.3494,-7.3626,-7.364,-7.347,-7.3468,-7.3467,0,-7.3022,-7.3105,-7.3176,-7.3197,-7.3245,-7.3277,-7.3298,-7.3333,-7.3363,-7.3405,-7.3424,-7.3471,-7.3497,-7.3533,-7.3541,-7.3509,-7.3624,-7.3582,-7.3631,-7.3631,-7.3655,-7.3653,-7.3793,-7.3672,-7.3671,-7.3671,-7.3671,0,-7.3126,-7.3188,-7.3209,-7.3253,-7.3322,-7.3329,-7.3397,-7.3416,-7.3447,-7.3494,-7.3485,-7.3529,-7.3537,-7.3582,-7.3588,-7.3656,-7.3668,-7.3675,-7.3676,-7.3676,-7.3675,-7.3692,-7.3686,-7.3675,-7.3674,-7.3673,-7.3673,0,-7.3218,-7.3234,-7.3311,-7.3351,-7.3363,-7.3412,-7.3446,-7.3488,-7.3502,-7.3561,-7.3575,-7.3597,-7.365,-7.3662,-7.3724,-7.3728,-7.3809,-7.3803,-7.3798,-7.3797,-7.3846,-7.3842,-7.4002,-7.4024,-7.3888,-7.3889,-7.389,0,-7.3283,-7.3331,-7.3377,-7.3409,-7.3432,-7.3483,-7.3515,-7.3525,-7.3558,-7.3605,-7.3642,-7.3695,-7.3737,-7.3823,-7.3843,-7.3891,-7.3887,-7.394,-7.3894,-7.3893,-7.3888,-7.3886,-7.3891,-7.3948,-7.395,-7.3951,-7.3952,0,-7.3397,-7.3404,-7.3452,-7.3503,-7.3543,-7.3583,-7.3621,-7.3647,-7.3662,-7.37,-7.3756,-7.3789,-7.3855,-7.3908,-7.3957,-7.3977,-7.3967,-7.3967,-7.3981,-7.3981,-7.3976,-7.398,-7.3822,-7.3963,-7.3962,-7.3961,-7.396,-7.396,-7.3478,-7.3521,-7.3561,-7.3615,-7.3646,-7.3682,-7.3725,-7.3745,-7.3793,-7.3848,-7.3851,-7.3912,-7.3948,-7.4014,-7.4037,-7.4085,-7.4068,-7.4088,-7.4093,-7.4098,-7.4103,-7.3969,-7.4093,-7.4093,-7.4093,-7.4093,-7.4092,0,-7.3593,-7.3619,-7.3669,-7.3724,-7.3767,-7.3757,-7.3799,-7.3835,-7.389,-7.3926,-7.397,-7.4034,-7.4086,-7.4112,-7.4163,-7.4196,-7.4193,-7.4209,-7.4207,-7.4212,-7.4115,-7.4098,-7.4211,-7.4211,-7.4211,-7.4211,-7.4211,-7.4211,-7.3658,-7.373,-7.3742,-7.383,-7.3855,-7.3917,-7.3942,-7.3976,-7.4006,-7.4079,-7.4123,-7.4141,-7.4173,-7.4227,-7.4274,-7.428,-7.4299,-7.4318,-7.4322,-7.423,-7.4218,-7.4207,-7.4191,-7.4322,-7.4322,-7.4415,-7.4416,-7.4417]}]]